DW1824 Weather Reports


time (UTC)temp
F
wind
direction
speed
knots
gust
knots
rain 1hr
in
rain 24hr
in
rain mn
in
humidity
%
barometer
mb
20260903180334 91 278 0.0 1.7 0.00 0.04 0.02 65 1013.8
20260903175338 91 257 0.9 5.2 0.00 0.04 0.02 66 1014.0
20260903174403 91 193 0.9 2.6 0.00 0.04 0.02 68 1013.8
20260903173404 90 168 0.9 4.3 0.00 0.04 0.02 69 1013.9
20260903172326 89 182 0.0 4.3 0.00 0.04 0.02 71 1013.9
20260903171330 89 177 0.0 1.7 0.00 0.04 0.02 72 1014.2
20260903170351 88 187 0.0 2.6 0.00 0.04 0.02 75 1014.4
20260903165337 87 185 0.0 0.0 0.00 0.04 0.02 75 1014.6
20260903164325 87 136 0.0 2.6 0.00 0.04 0.02 76 1014.7
20260903163326 87 145 0.9 2.6 0.00 0.04 0.02 78 1014.8
20260903162331 86 164 0.0 1.7 0.00 0.04 0.02 81 1014.6
20260903161336 86 185 0.9 2.6 0.00 0.04 0.02 81 1014.8
20260903160338 86 150 0.0 2.6 0.00 0.04 0.02 81 1014.7
20260903155326 86 207 0.9 3.5 0.00 0.04 0.02 81 1014.5
20260903154335 86 172 0.9 5.2 0.00 0.04 0.02 80 1014.5
20260903153338 86 182 0.9 3.5 0.00 0.04 0.02 82 1014.6
20260903152343 86 172 1.7 7.0 0.00 0.04 0.02 82 1014.7
20260903151328 85 151 1.7 3.5 0.00 0.04 0.02 83 1014.7
20260903150330 85 184 1.7 4.3 0.00 0.04 0.02 82 1014.7
20260903145336 85 171 0.9 5.2 0.00 0.04 0.02 83 1014.6
20260903144340 85 145 1.7 4.3 0.00 0.04 0.02 82 1014.6
20260903143342 86 156 0.0 5.2 0.00 0.04 0.02 83 1014.6
20260903142331 85 187 0.0 0.0 0.00 0.04 0.02 83 1014.6
20260903141337 85 176 0.0 0.0 0.00 0.04 0.02 84 1014.5
20260903140341 84 149 0.0 2.6 0.00 0.04 0.02 86 1014.5
20260903135326 83 131 0.0 3.5 0.00 0.04 0.02 86 1014.6
20260903134330 83 139 0.9 2.6 0.00 0.04 0.02 87 1014.5
20260903133332 83 141 0.9 2.6 0.00 0.04 0.02 87 1014.4
20260903132338 82 151 0.0 1.7 0.00 0.04 0.02 88 1014.3
20260903131328 82 151 0.0 0.0 0.00 0.04 0.02 88 1014.3
20260903130330 81 168 0.0 0.0 0.00 0.04 0.02 89 1014.2
20260903125336 81 185 0.0 2.6 0.00 0.04 0.02 89 1014.1
20260903124343 81 160 0.0 1.7 0.00 0.04 0.02 89 1014.0
20260903123325 81 170 0.0 1.7 0.00 0.04 0.02 89 1013.9
20260903122330 81 157 0.0 2.6 0.00 0.04 0.02 88 1013.8
20260903121335 81 148 0.0 1.7 0.00 0.04 0.02 88 1013.8
20260903120338 81 146 0.0 3.5 0.00 0.04 0.02 88 1013.7
20260903115328 81 159 0.0 1.7 0.00 0.04 0.02 88 1013.7
20260903114332 81 181 0.0 1.7 0.00 0.04 0.02 88 1013.7
20260903113336 81 187 0.9 2.6 0.00 0.04 0.02 88 1013.6
20260903112342 81 139 0.0 2.6 0.00 0.04 0.02 88 1013.6
20260903111327 81 151 0.9 1.7 0.00 0.04 0.02 87 1013.7
20260903110328 81 189 0.0 1.7 0.00 0.04 0.02 87 1013.8
20260903105334 82 146 0.0 2.6 0.00 0.04 0.00 87 1013.7
20260903104405 81 167 0.0 1.7 0.00 0.04 0.00 87 1013.5
20260903103325 82 171 0.0 1.7 0.00 0.04 0.00 87 1013.5
20260903102352 82 111 0.9 1.7 0.00 0.04 0.00 87 1013.5
20260903101356 82 166 0.0 0.9 0.00 0.04 0.00 87 1013.5
20260903100338 82 180 0.0 2.6 0.00 0.04 0.00 87 1013.4
20260903095344 82 172 0.0 1.7 0.00 0.04 0.00 87 1013.4
20260903094329 82 161 0.9 4.3 0.00 0.04 0.00 87 1013.5
20260903093332 82 151 0.0 2.6 0.00 0.04 0.00 87 1013.5
20260903092338 82 139 0.0 1.7 0.00 0.04 0.00 87 1013.4
20260903091328 82 144 0.0 1.7 0.00 0.04 0.00 87 1013.4
20260903090328 82 149 0.9 2.6 0.00 0.04 0.00 87 1013.3
20260903085335 82 129 0.0 1.7 0.00 0.04 0.00 88 1013.4
20260903084341 82 153 0.9 2.6 0.00 0.04 0.00 88 1013.3
20260903083325 82 174 0.9 3.5 0.00 0.04 0.00 87 1013.3
20260903082351 81 129 0.9 2.6 0.00 0.04 0.00 88 1013.2
20260903080337 82 141 1.7 2.6 0.00 0.04 0.00 88 1013.2
20260903075344 82 147 1.7 2.6 0.00 0.04 0.00 88 1013.2
20260903074327 81 145 1.7 2.6 0.00 0.04 0.00 88 1013.1
20260903073332 82 145 1.7 3.5 0.00 0.04 0.00 88 1013.2
20260903072339 82 138 1.7 6.1 0.00 0.04 0.00 88 1013.2
20260903071343 82 140 2.6 6.1 0.00 0.04 0.00 88 1013.2
20260903070324 81 139 2.6 4.3 0.00 0.04 0.00 88 1013.4
20260903065329 81 147 2.6 4.3 0.00 0.04 0.00 89 1013.5
20260903064340 81 126 3.5 6.1 0.00 0.04 0.00 89 1013.7
20260903063342 81 133 1.7 3.5 0.00 0.04 0.00 89 1013.7
20260903062327 81 149 1.7 3.5 0.00 0.04 0.00 89 1013.8
20260903061332 81 136 2.6 3.5 0.00 0.04 0.00 89 1013.8
20260903060335 82 139 2.6 6.1 0.00 0.04 0.00 89 1013.9
20260903055342 82 133 2.6 3.5 0.00 0.04 0.00 89 1014.1
20260903054348 82 137 1.7 2.6 0.00 0.04 0.00 88 1014.2
20260903053327 82 131 0.0 2.6 0.00 0.04 0.00 88 1014.3
20260903052336 82 135 2.6 5.2 0.00 0.04 0.00 88 1014.3
20260903051342 82 133 1.7 2.6 0.00 0.04 0.00 87 1014.5
20260903050403 82 137 1.7 2.6 0.00 0.04 0.00 87 1014.7
20260903045348 82 101 0.0 0.0 0.00 0.04 0.03 86 1014.9
20260903044333 83 5 0.0 0.0 0.00 0.04 0.03 85 1015.0
20260903043336 83 5 0.0 0.0 0.00 0.04 0.03 83 1015.2
20260903042343 84 5 0.0 0.0 0.00 0.04 0.03 82 1015.3
20260903041331 84 5 0.0 0.0 0.00 0.04 0.03 81 1015.2
20260903040333 84 27 0.0 0.0 0.00 0.04 0.03 80 1015.0
20260903035357 84 27 0.0 0.0 0.00 0.04 0.03 80 1015.0
20260903034343 84 27 0.0 0.0 0.00 0.04 0.03 79 1014.9
20260903033346 84 27 0.0 0.0 0.00 0.04 0.03 78 1014.8
20260903032350 84 141 0.0 1.7 0.00 0.04 0.03 78 1014.6
20260903031333 84 141 0.9 4.3 0.00 0.04 0.03 78 1014.3
20260903030336 85 148 1.7 4.3 0.00 0.04 0.03 77 1014.0
20260903025339 85 137 2.6 7.0 0.00 0.04 0.03 76 1013.4
20260903024347 85 147 2.6 8.7 0.00 0.04 0.03 75 1013.4
20260903023348 85 138 3.5 10.4 0.00 0.04 0.03 74 1013.2
20260903022336 86 131 4.3 9.6 0.00 0.04 0.03 73 1013.1
20260903021340 86 142 3.5 8.7 0.00 0.04 0.03 71 1012.7
20260903020342 86 132 2.6 8.7 0.00 0.04 0.03 70 1012.6
20260903015327 87 141 3.5 8.7 0.00 0.04 0.03 70 1012.4
20260903014326 87 129 3.5 8.7 0.00 0.04 0.03 69 1012.3
20260903013330 88 141 3.5 10.4 0.00 0.04 0.03 68 1012.1
20260903012335 88 143 3.5 7.8 0.00 0.04 0.03 63 1012.1
20260903011325 89 144 1.7 7.0 0.00 0.04 0.03 60 1012.0
20260903010327 90 155 2.6 7.8 0.00 0.04 0.03 58 1011.8
20260903005331 90 145 2.6 7.0 0.02 0.04 0.03 57 1011.8
20260903004335 90 141 1.7 7.8 0.02 0.04 0.03 57 1011.8
20260903003339 91 145 4.3 8.7 0.02 0.04 0.03 56 1011.6
20260903002343 92 139 5.2 8.7 0.02 0.04 0.03 57 1011.2
20260903001329 92 144 4.3 12.2 0.02 0.04 0.03 56 1011.1
20260903000332 93 151 2.6 10.4 0.02 0.04 0.03 55 1011.0
20260902235342 93 149 3.5 8.7 0.00 0.02 0.02 54 1011.0
20260902234346 94 144 6.1 12.2 0.00 0.02 0.02 53 1010.9
20260902233344 95 140 2.6 7.8 0.01 0.02 0.02 54 1010.9
20260902232329 95 144 2.6 7.0 0.01 0.02 0.02 53 1010.9
20260902231352 95 155 3.5 9.6 0.02 0.02 0.02 52 1010.8
20260902230332 96 123 1.7 8.7 0.02 0.02 0.02 53 1010.9
20260902225337 96 146 5.2 10.4 0.02 0.02 0.02 50 1010.9
20260902224403 97 145 1.7 6.1 0.02 0.02 0.02 48 1010.8
20260902223343 97 168 0.9 3.5 0.01 0.01 0.01 46 1010.8
20260902222354 97 131 1.7 2.6 0.01 0.01 0.01 46 1010.8
20260902221335 97 183 0.9 6.1 0.00 0.00 0.00 47 1011.0
20260902220359 97 200 0.9 6.1 0.00 0.00 0.00 48 1010.8
20260902215343 98 109 0.0 5.2 0.00 0.00 0.00 47 1010.9
20260902214328 98 146 0.9 2.6 0.00 0.00 0.00 47 1010.9
20260902213331 97 203 0.9 2.6 0.00 0.00 0.00 47 1011.1
20260902212336 97 176 0.9 3.5 0.00 0.00 0.00 47 1011.2
20260902211341 97 142 0.9 4.3 0.00 0.00 0.00 48 1011.3
20260902210327 97 201 0.9 4.3 0.00 0.00 0.00 49 1011.4
20260902205333 96 137 0.0 2.6 0.00 0.00 0.00 50 1011.4
20260902204339 94 174 0.0 1.7 0.00 0.00 0.00 56 1011.8
20260902203342 93 172 0.9 2.6 0.00 0.00 0.00 59 1011.8
20260902202328 89 162 1.7 5.2 0.00 0.00 0.00 62 1012.0
20260902201334 89 44 0.0 3.5 0.00 0.00 0.00 71 1012.0
20260902200341 91 289 1.7 3.5 0.00 0.00 0.00 66 1012.6
20260902195329 92 141 1.7 2.6 0.00 0.00 0.00 61 1012.5
20260902194335 94 147 1.7 3.5 0.00 0.00 0.00 54 1012.7
20260902193336 95 228 0.9 2.6 0.00 0.00 0.00 52 1012.8
20260902192343 95 241 0.9 4.3 0.00 0.00 0.00 51 1013.0
20260902191326 94 176 1.7 3.5 0.00 0.00 0.00 53 1013.0
20260902190331 95 260 0.0 1.7 0.00 0.00 0.00 56 1013.1
20260902185336 95 249 0.9 4.3 0.00 0.00 0.00 53 1013.3
20260902184344 96 284 0.9 7.0 0.00 0.00 0.00 52 1013.5
20260902183328 95 181 0.9 3.5 0.00 0.00 0.00 52 1013.7
20260902182333 94 193 0.0 4.3 0.00 0.00 0.00 55 1013.9
20260902181338 94 237 1.7 5.2 0.00 0.00 0.00 55 1014.0